STARLINK-3256 (50202 NORAD) Tracking and Keplerian Element Data
This shows tracking and keplerian element data for the satellite.
Feedback or suggestion? Click here.
Element | Value |
Catalog | 50202 |
Name | STARLINK-3256 |
Epoch Orbit | 2659 |
Epoch Day | 140.91667824 |
Epoch Year | 2022 |
RAAN | 353.5648 |
Inclination | 53.2164 |
Eccentricity | 0.0002084 |
Argument of Perigee | 46.434 |
Mean Anonmoly | 226.7064 |
Mean Motion | 15.08831502 |
Decay Rate | -0.00018844 |
L1 | 1 50202U 21125AY 22140.91667824 -.00018844 00000+0 -11692-2 0 9999 |
L2 | 2 50202 53.2164 353.5648 0002084 46.4340 226.7064 15.08831502 26593 |
Live tracking and technical data element details for STARLINK-3256 (NORAD 50202). STARLINK-3256 can be tracked NOW for your location showing map with azimuth and elevation plus other details from your city location.
Track the satellite on the map from your city or location and see movement details for azimuth, elevation, latitude, longitude, range, height, and movement on the map or in text.
IsCatalogInMostPopularTable: catalog: 50202, numindb: 24
Update: records affected: 1
GetName: 50202 STARLINK-3256
Hit Count: updated at: Mon, 23 May 2022 20:19:34 GMT